RH
14 15 16 19 24 28 25 20 15 15 15 27 38 44 44 49 49 66 79 76 76 89 86 84 82 81 78 76 75 72 64 61 60 54 60 67 66 63 58 51 48 66 92 95 96 96 97 96 89
12 14 20 26 32 34 28 19 17 15 14 33 43 44 46 73 79 88 91 83 79 84 85 85 82 79 76 73 71 69 59 58 64 68 69 72 67 63 60 56 54 71 88 94 97 99 97 90 88
10 15 27 29 38 35 29 18 16 14 13 26 49 48 46 89 83 80 88 98 88 82 82 83 80 78 76 74 72 69 60 62 69 81 80 75 68 65 60 54 81 88 90 97 97 98 87 84 82
12 20 27 37 35 28 23 16 16 16 15 25 49 54 47 64 70 86 91 96 86 80 80 81 79 79 75 72 71 66 60 73 95 75 74 70 64 62 57 78 92 98 98 100 96 90 86 84 82
17 28 36 42 39 30 23 18 17 19 19 32 47 62 68 74 72 88 88 89 73 84 83 82 78 76 70 66 62 62 60 70 82 65 61 55 50 52 52 79 99 97 98 95 86 85 83 81 79
26 30 43 42 37 28 25 19 18 18 18 41 59 70 72 86 86 86 87 80 69 75 84 78 76 76 75 72 63 61 61 58 55 54 55 53 55 60 74 82 100 97 92 85 84 83 81 80 77
22 40 41 36 34 30 24 17 17 24 19 16 50 78 77 81 84 85 88 71 71 73 76 82 84 80 80 76 64 57 55 53 54 58 59 54 57 50 94 98 99 99 88 86 84 81 78 76 72
16 30 30 34 35 32 22 18 20 23 22 20 57 78 77 70 83 95 89 71 70 76 76 84 88 86 85 74 61 53 51 54 57 61 54 52 52 81 100 98 98 92 88 86 83 78 74 74 70
14 21 29 31 28 25 20 20 17 19 19 20 46 59 53 84 95 98 99 99 98 96 87 86 89 90 84 70 64 58 52 54 62 57 53 55 83 100 98 97 96 90 88 86 80 74 72 70 68
23 31 20 18 19 21 19 19 18 19 20 19 61 67 88 92 93 96 94 96 99 100 100 88 91 90 81 75 72 64 59 59 54 52 64 68 92 99 97 96 95 90 88 79 72 73 73 74 71
18 24 16 13 11 13 14 12 12 19 22 21 64 71 84 88 90 91 90 93 96 100 100 100 92 88 82 76 70 63 56 56 52 57 73 88 94 97 96 96 96 92 79 71 73 73 74 71 68
18 15 14 14 12 11 10 8 9 15 19 25 52 61 79 87 88 88 90 88 94 100 99 95 91 87 78 66 64 58 54 54 53 76 93 100 99 99 97 97 97 85 73 75 82 77 74 67 67
21 18 15 13 12 10 9 9 8 7 9 25 59 57 78 83 83 84 87 87 91 92 94 89 84 81 68 62 57 53 51 48 51 93 99 97 99 100 98 99 94 83 85 83 68 79 70 68 70
18 17 18 16 14 11 10 10 8 9 11 13 64 73 71 78 82 86 86 86 88 87 90 80 73 65 63 54 48 45 44 41 53 84 89 88 81 97 99 96 88 86 93 62 59 69 68 69 68
15 18 17 17 15 14 9 12 10 7 10 14 35 74 73 69 84 83 83 83 84 83 84 84 74 63 55 44 36 42 48 51 58 65 80 89 78 88 94 90 88 97 70 60 57 61 68 67 66
24 19 22 17 16 14 11 16 10 9 8 13 17 73 77 81 85 89 87 83 83 83 84 80 73 72 52 42 40 53 61 66 70 76 78 80 80 83 91 88 95 88 63 59 54 58 63 65 59
31 37 24 20 16 17 14 14 10 9 11 11 14 73 83 94 92 90 82 85 91 80 79 83 76 72 57 52 51 58 62 66 77 77 77 83 84 84 86 89 88 72 61 54 50 58 59 58 62
41 32 25 23 18 17 21 19 14 9 10 12 36 79 88 90 85 85 80 78 78 82 75 81 78 73 59 63 69 62 64 72 72 70 73 79 77 78 86 83 88 70 60 52 48 51 54 57 58
38 38 33 24 18 19 20 16 15 10 9 12 86 87 83 74 66 74 56 66 84 82 79 80 75 70 67 78 80 78 81 70 68 71 73 77 79 82 83 84 82 73 58 50 42 47 54 57 54
42 44 40 26 20 20 19 19 14 13 9 9 87 87 78 76 82 73 84 58 71 82 80 78 70 73 67 68 69 70 73 74 71 74 77 77 79 81 83 85 83 67 56 47 42 47 55 55 53
42 42 36 31 22 19 18 19 16 13 11 8 54 70 72 75 77 82 71 81 89 88 84 83 70 66 67 64 64 69 75 75 78 75 75 76 75 78 80 82 81 68 58 45 42 45 49 55 50
46 33 32 28 24 27 17 23 16 14 13 10 22 69 65 68 69 84 92 90 86 96 89 84 75 70 64 60 65 72 76 78 77 72 70 73 72 68 80 68 66 71 60 47 42 42 43 49 50
39 34 48 40 27 24 21 25 17 15 16 12 9 52 61 60 68 76 86 89 85 91 98 93 77 72 66 63 63 64 67 67 71 68 66 65 68 66 78 69 67 71 60 51 43 41 40 44 42
44 55 50 48 39 37 23 23 24 16 16 13 12 23 56 66 78 82 88 91 83 92 98 94 82 76 66 65 63 63 61 58 59 58 57 55 58 54 80 78 75 70 62 54 47 43 41 40 42
58 77 92 62 51 43 21 24 22 18 17 15 14 11 43 70 89 94 93 87 90 98 98 97 87 80 71 67 64 62 60 56 55 53 52 53 54 56 68 70 67 70 64 54 48 44 42 37 44
70 75 88 80 65 48 25 31 21 14 12 12 13 13 35 65 79 91 89 76 86 93 97 96 85 83 76 67 64 63 60 56 53 50 49 51 53 60 61 66 68 66 62 57 52 47 42 38 43
79 89 66 78 36 44 36 22 15 20 35 57 37 18 41 67 75 80 74 76 78 92 95 94 85 82 81 68 64 63 57 53 50 48 46 49 52 64 68 69 68 67 66 64 54 49 48 60 60
64 56 74 91 63 54 42 34 55 87 85 76 77 35 47 63 71 75 80 81 91 85 91 100 90 85 82 67 64 60 53 51 46 45 44 47 52 64 75 73 70 68 67 66 61 52 54 58 67
68 81 86 56 52 48 55 56 76 86 84 83 82 76 44 63 77 70 74 84 88 92 95 99 98 91 82 68 65 56 54 50 44 43 41 44 51 62 74 76 77 74 71 68 62 62 58 64 69
76 58 74 75 56 56 68 78 78 82 80 76 82 78 49 59 77 71 81 85 88 90 93 99 92 96 87 75 64 58 58 51 44 43 42 41 47 55 66 76 77 77 75 71 67 69 66 71 77
Wind_Speed
13 12 12 6 4 4 3 7 3 9 9 6 5 5 5 5 4 4 20 24 44 41 36 32 31 30 28 27 25 24 24 25 26 26 28 28 27 25 25 24 24 25 26 25 26 25 27 29 27
10 9 3 2 4 1 5 5 2 7 8 2 7 5 7 3 5 16 17 40 45 43 38 34 33 31 28 27 25 25 25 25 25 26 26 26 25 24 23 22 22 25 26 26 26 28 29 27 26
8 3 3 4 4 6 6 7 6 4 12 8 6 6 3 2 13 17 25 37 43 42 38 35 34 32 29 27 26 25 26 25 24 25 25 24 23 22 22 22 23 26 26 25 26 28 28 27 25
3 4 4 4 8 8 8 9 6 7 8 7 5 9 5 9 11 16 40 36 42 41 38 35 34 33 30 28 26 26 26 25 23 25 24 23 22 22 21 23 26 26 25 26 27 28 26 25 24
1 3 1 4 9 8 7 11 7 8 6 5 3 3 3 3 22 41 38 38 44 39 37 35 33 31 30 29 28 27 26 26 24 24 23 22 21 21 21 24 27 26 26 28 29 27 25 24 23
3 3 1 8 10 8 8 9 9 12 10 3 6 6 3 27 41 36 35 40 42 42 37 34 32 31 30 30 29 28 27 25 24 23 23 22 21 21 22 26 26 26 28 29 27 26 24 23 22
5 4 5 2 4 6 7 3 2 7 8 7 11 5 7 17 34 38 37 42 41 40 38 35 31 29 29 29 29 29 27 25 24 24 23 22 21 20 24 25 26 27 28 27 26 25 23 23 23
4 4 2 4 5 9 6 2 3 3 4 4 2 5 15 22 34 37 42 44 40 39 37 36 33 31 30 29 29 29 27 26 25 24 23 22 21 23 25 26 26 28 26 25 24 24 24 23 24
3 3 4 7 7 8 6 4 3 5 5 2 2 6 18 39 38 33 31 34 34 33 36 36 35 32 31 30 29 28 27 26 25 24 23 23 24 24 22 24 26 26 24 24 25 25 26 26 26
4 4 8 6 3 6 7 9 7 5 5 13 5 19 35 33 38 35 32 30 32 31 30 38 36 34 32 31 30 29 29 28 27 26 25 23 25 22 24 23 25 26 25 26 26 27 28 27 27
5 7 4 6 6 6 6 8 6 9 13 8 8 17 25 27 28 29 30 35 39 36 35 38 38 36 36 33 31 31 30 29 28 27 26 24 26 26 25 26 26 28 28 27 26 27 27 26 26
5 7 5 7 8 8 12 5 11 10 14 9 12 23 23 19 19 28 28 30 36 37 37 41 39 39 36 34 33 32 31 31 30 29 27 26 29 27 28 28 29 32 28 26 20 24 23 23 24
5 5 6 9 10 10 11 16 11 21 10 9 16 21 22 19 22 25 33 34 33 35 37 42 40 38 36 36 34 33 33 32 33 32 26 26 28 27 29 28 31 30 24 18 20 24 26 26 25
4 6 7 6 8 6 8 11 7 16 6 13 14 20 22 20 23 23 24 31 38 34 38 42 40 38 37 36 35 35 34 33 34 32 25 27 25 28 30 30 32 28 21 24 24 27 29 28 24
4 8 9 7 5 6 4 13 29 6 7 11 12 18 21 23 25 27 33 35 41 41 44 43 41 38 39 37 37 36 35 33 31 30 26 29 25 28 30 33 31 24 29 27 25 27 28 28 24
5 4 2 3 7 4 8 26 18 6 8 11 11 18 17 18 21 26 19 19 28 34 39 45 43 40 41 39 39 36 33 30 30 31 32 30 26 27 31 33 26 30 31 28 27 29 30 27 25
3 6 8 7 5 4 8 21 12 10 9 10 11 17 16 11 11 20 21 10 9 32 36 42 41 42 41 39 38 35 35 33 33 32 32 30 29 29 33 32 31 33 31 28 28 30 30 30 25
5 7 6 9 2 7 11 21 10 16 9 10 8 15 17 17 17 26 28 21 15 22 37 39 37 40 40 39 36 38 34 35 34 31 30 30 28 29 33 30 34 35 31 29 29 29 29 29 28
12 13 13 3 7 6 11 16 19 10 14 11 8 11 16 17 16 26 38 32 37 30 37 40 40 42 41 34 34 41 37 38 34 32 30 29 27 30 33 35 36 35 35 31 29 32 30 28 27
16 18 23 19 14 9 12 17 16 12 17 11 12 13 16 13 13 16 22 23 37 37 41 42 45 44 45 38 35 38 40 37 33 31 29 30 28 29 31 35 37 37 36 34 33 34 33 30 29
20 20 17 18 16 16 9 15 12 9 12 18 15 20 18 19 20 17 18 35 35 43 44 42 46 47 45 40 38 38 39 37 34 32 31 28 27 27 31 35 36 38 36 38 36 35 34 32 25
20 18 19 17 14 11 7 12 13 6 13 15 13 17 19 19 19 21 22 32 41 37 42 45 43 44 44 43 41 43 33 32 33 34 30 29 25 25 32 33 40 38 36 38 35 35 33 35 29
20 6 7 13 16 8 13 5 10 5 10 14 13 20 21 20 19 22 20 35 42 32 26 27 43 42 44 45 45 42 36 35 37 34 31 29 26 25 34 32 38 35 37 36 36 35 32 33 28
8 7 13 12 11 14 18 8 6 10 12 14 10 15 22 17 18 17 31 34 33 37 37 32 37 41 47 44 46 41 42 36 38 34 33 30 29 27 35 35 34 33 36 38 36 34 31 30 26
3 2 3 7 11 11 14 5 9 11 9 15 15 12 23 22 19 19 23 23 34 33 46 45 37 39 44 46 46 43 42 40 39 36 36 34 32 31 33 34 33 34 37 38 35 32 28 26 26
17 11 5 8 4 12 8 5 8 14 15 15 13 14 20 22 21 22 23 27 33 40 35 38 41 38 41 48 46 45 42 40 39 38 38 38 37 34 32 32 32 35 35 34 32 30 26 26 23
6 8 11 4 3 3 4 5 17 11 12 15 17 15 18 22 23 25 21 27 34 32 38 36 40 39 37 44 45 43 46 42 40 38 37 37 36 31 30 32 33 33 31 29 32 30 27 20 19
7 5 7 4 4 4 2 3 2 16 18 18 18 11 16 21 21 18 19 25 28 39 41 36 42 41 36 42 44 45 47 41 39 39 38 37 36 35 32 33 33 32 29 28 31 30 27 24 19
3 5 4 3 3 4 2 2 9 13 13 21 19 14 10 20 18 18 20 28 34 34 35 27 34 36 36 43 41 44 44 42 39 39 37 38 36 37 34 33 32 32 32 30 30 29 28 26 22
2 4 10 3 4 2 4 1 10 11 13 18 22 18 12 20 22 21 20 26 27 28 29 38 37 33 36 40 42 44 43 42 40 39 38 38 37 35 36 33 31 31 33 32 31 32 30 27 26
Wind_Direction
306 317 324 7 39 57 259 258 92 311 344 1 40 132 187 104 152 182 143 159 147 148 147 146 141 139 136 134 132 129 128 127 125 122 120 119 115 112 109 108 108 107 101 98 96 97 101 106 105
320 328 36 77 99 73 267 261 285 259 327 174 65 18 48 64 42 121 118 148 149 146 146 145 141 139 139 138 136 132 131 131 128 125 124 121 117 114 111 108 106 110 107 105 101 104 105 111 109
315 324 90 136 149 185 231 243 248 326 313 348 131 69 51 102 117 137 147 148 146 145 147 147 145 141 141 140 138 135 134 134 128 128 127 124 120 116 113 109 106 114 112 107 107 110 113 110 107
342 23 22 141 215 240 214 258 343 351 326 14 113 83 91 142 137 147 146 146 146 145 149 149 147 145 143 142 141 137 137 134 129 132 130 127 122 118 115 110 112 112 110 108 114 117 115 109 105
59 59 176 211 239 246 255 255 268 292 290 322 255 109 60 81 141 140 145 150 145 147 150 151 150 149 147 144 143 141 141 139 136 135 133 129 125 123 120 116 115 117 115 118 121 121 114 108 105
37 100 121 222 230 249 252 273 301 289 274 174 122 115 81 138 135 146 150 151 150 150 153 152 152 151 149 146 145 144 143 144 142 138 135 131 129 127 120 120 120 120 125 125 125 120 113 107 103
131 98 221 230 264 267 254 107 208 312 286 236 154 101 121 156 145 150 154 153 153 153 154 153 153 152 152 149 148 147 147 146 144 142 139 136 132 128 121 121 121 123 128 128 124 119 115 107 99
119 105 238 230 225 273 269 278 284 243 269 358 117 154 164 169 155 149 152 154 155 156 157 155 154 155 154 153 151 149 149 148 146 144 141 137 133 125 123 125 127 129 130 128 123 116 109 102 98
102 59 225 231 214 239 332 284 283 292 297 142 352 159 144 147 146 141 143 144 149 155 160 159 157 158 157 155 154 151 149 149 148 145 144 142 132 127 126 127 134 133 132 127 122 115 110 106 100
140 157 224 215 234 267 274 269 265 238 269 284 62 93 131 147 152 151 153 153 151 156 160 163 162 161 158 158 158 156 152 154 152 151 148 143 138 131 133 132 136 133 133 126 124 122 119 115 112
200 211 212 263 265 264 284 294 269 268 254 229 149 144 151 159 163 158 160 162 156 161 160 168 167 163 162 163 163 160 157 157 157 154 151 142 138 140 139 138 140 137 134 131 130 131 129 127 121
244 246 234 269 253 264 272 254 277 271 261 204 162 162 161 165 170 163 161 162 158 162 165 170 171 167 168 164 167 164 163 161 161 156 156 154 149 148 148 147 145 143 137 133 139 139 138 135 127
239 255 260 266 267 255 259 263 252 261 257 270 173 164 167 174 180 174 164 160 159 162 167 173 174 173 171 169 170 168 168 166 164 161 166 163 159 154 153 152 151 146 141 136 138 153 145 139 132
264 284 267 260 267 267 266 273 240 256 228 256 175 170 172 172 177 168 168 163 163 167 168 173 176 177 176 173 171 172 171 168 169 173 170 177 169 162 159 156 154 148 150 144 142 148 147 142 133
329 324 323 257 230 243 17 279 255 245 212 239 194 190 182 179 170 171 176 175 169 171 168 173 177 178 179 176 174 174 174 172 174 181 186 179 176 168 163 159 157 157 152 147 143 142 142 135 128
358 296 258 275 182 223 164 258 269 265 222 229 236 194 195 185 167 144 151 188 181 167 171 172 178 180 181 179 178 176 175 176 176 175 175 178 176 171 165 162 165 161 157 154 150 146 140 136 133
243 252 245 305 225 252 185 268 258 258 222 234 247 187 183 171 151 146 140 147 236 182 173 175 181 183 181 178 180 185 181 184 178 175 173 174 169 170 168 168 164 165 162 156 151 145 140 138 137
220 246 257 240 206 219 272 273 268 272 258 231 221 182 182 179 180 164 163 170 270 217 181 176 179 188 186 183 188 190 190 181 174 170 168 165 165 169 172 174 169 170 163 158 156 153 145 141 138
256 269 265 306 247 245 257 268 267 265 264 244 190 181 194 189 200 185 174 191 246 263 184 181 176 183 184 171 164 168 167 169 167 166 167 169 167 170 171 171 170 173 168 163 157 150 148 146 145
236 247 258 275 268 243 264 263 266 254 259 235 188 184 198 191 171 181 181 172 241 235 189 185 181 174 175 167 162 167 169 167 167 165 165 172 174 177 178 176 175 171 168 166 161 157 153 154 154
232 237 252 254 267 267 266 271 264 273 258 257 200 192 192 191 181 181 186 186 202 203 188 185 179 176 176 172 165 165 166 163 165 169 172 171 173 182 180 177 176 174 176 172 168 165 162 162 168
245 240 253 259 247 253 167 269 263 249 258 250 202 193 193 193 197 175 182 181 187 192 187 186 175 174 180 175 167 160 159 162 166 171 175 180 181 181 181 178 176 178 180 177 176 176 177 173 177
252 241 299 285 257 235 242 246 268 228 262 265 241 197 203 191 186 175 178 186 189 180 206 201 171 171 177 172 171 165 162 168 168 171 172 180 179 177 180 183 185 183 183 184 184 184 185 186 188
268 299 289 278 252 245 247 208 254 252 246 266 278 193 200 179 188 181 171 169 179 182 197 199 175 170 179 178 176 175 174 169 169 172 172 180 181 177 185 187 187 191 190 189 191 189 189 192 197
179 188 229 234 233 245 241 211 233 255 246 246 257 240 190 171 172 172 171 170 170 187 193 191 180 172 173 177 179 186 183 179 178 179 178 178 180 179 181 185 188 191 193 191 191 189 192 194 198
182 176 233 196 200 233 244 231 242 245 258 262 265 261 182 171 174 178 182 177 174 175 194 184 182 177 175 178 181 188 187 185 186 188 184 183 183 181 183 187 187 184 187 191 191 189 189 193 202
157 186 202 299 236 159 217 229 248 286 328 343 304 245 175 175 174 186 187 173 175 160 192 188 183 180 178 175 182 184 185 188 189 189 187 188 184 179 180 185 185 184 187 192 191 190 192 194 199
185 176 158 197 195 224 289 304 31 9 345 336 327 301 175 179 181 176 168 173 170 176 186 194 180 178 174 174 183 182 186 191 191 188 187 188 187 182 178 180 185 186 190 192 192 192 198 200 193
151 122 71 261 208 162 87 248 11 5 351 338 329 304 222 171 181 176 169 171 172 172 176 170 192 171 172 176 176 180 186 190 190 187 188 189 187 186 185 185 186 189 191 193 193 195 203 207 204
250 183 176 125 301 56 125 314 24 3 348 359 331 313 210 181 179 179 165 166 167 171 172 166 190 174 178 173 175 181 186 188 188 188 189 189 190 191 192 191 190 190 193 194 196 198 204 207 205